星链-4257 (STARLINK-4257 )

导读 | 豆包AI

STARLINK-4257是美国SpaceX星链(Starlink)星座的一颗互联网卫星,于2022年7月17日发射。它属于星链Group 4批次,采用猎鹰9号火箭执行发射任务,单星质量约297千克,运行在近地轨道,轨道高度约550公里,旨在为全球提供高速、低延迟的宽带互联网服务,支撑星链星座的全球覆盖组网。

基本信息
目录编号:
53184
目录名称:
STARLINK-4257
国际标识:
2022-083BE
轨道中心:
EARTH
卫星名称:
星链-4257
卫星全名:
星链-4257 (STARLINK-4257 )
卫星状态:
在轨 (已飞行1383 天)
发射日期:
2022-07-17 UTC
国别 :
美国 (US)
星等 :
--
轨道信息
数据来源 国际轨道数据 AOE轨道数据
星历时间 2026-04-30T09:46:47+0800
17小时前
查看轨道信息
2026-04-25T08:00:00+0800
5天前
查看轨道信息
半长轴 6917.882km 6917.894km
偏心率 0.0001239 0.000072
轨道倾角 53.218° 53.214°
近地点辐角 90.206° 42.960°
升交点赤经 253.032° 275.813°
平近点角 269.907° 100.254°
近地点 538.887km 539.258km
远地点 540.603km 540.256km
周期 95.438分钟 95.438分钟
每日圈数 15.088396 15.088358
详细信息
固有亮度:
5
最大亮度:
2.5
卫星平台:
Starlink v1.5
覆盖范围:
全球
运营商:
太空探索技术公司
运营商所在国:
美国
制造商(研发单位):
太空探索技术公司
制造商所在国:
美国
使用方式:
暂无
卫星简介
星链(Starlink)计划是由太空探索技术公司(SpaceX)提出的一个巨型低轨卫星互联网星座项目,计划在2019年至2024年间在太空搭建由约1.2万颗卫星组成的“星链”网络,其中1584颗将部署在地球上空550千米处的近地轨道,并从2020年开始工作。该卫星仍在工作。
2D轨道图
3D轨道图
轨道高度分析图
轨道倾角分析图
轨道综合分析图
查看轨道综合分析图